Stations météo

réclame
Mon MeteoGroup
Montelimar, France (7577): Température de l'air & dewpoint: 17.07.2019 15:00:00 - 23.07.2019 15:00:00 (CEST)Montelimar, France (7577): Température de l'air 5cm: 17.07.2019 15:00:00 - 23.07.2019 15:00:00 (CEST)Montelimar, France (7577): Température de l'air -20cm & Température de l'air -100cm: 17.07.2019 15:00:00 - 23.07.2019 15:00:00 (CEST)Montelimar, France (7577): Vitesse du vent & gusts: 17.07.2019 15:00:00 - 23.07.2019 15:00:00 (CEST)Montelimar, France (7577): Direction du vent: 17.07.2019 15:00:00 - 23.07.2019 15:00:00 (CEST)Montelimar, France (7577): reduced air pressure: 17.07.2019 15:00:00 - 23.07.2019 15:00:00 (CEST)Montelimar, France (7577): visibility: 17.07.2019 15:00:00 - 23.07.2019 15:00:00 (CEST)Montelimar, France (7577): Ensoleillement: 17.07.2019 15:00:00 - 23.07.2019 15:00:00 (CEST)Montelimar, France (7577): Quantités de précipitations: 17.07.2019 15:00:00 - 23.07.2019 15:00:00 (CEST)
Date & Time tt [°C] td [°C] tt 5cm [°C] tt -20cm [°C] tt -100cm [°C] ff [km/h] ff [knt] fx [km/h] fx [knt] dd ppp [hPa] vv [km] sd [min] rr [mm]
23.07.2019 15:00:00 36,5 17,6 42,9 29,3 24,4 14 8 24 13 S 1016,1 20 60 0,0
23.07.2019 14:00:00 35,4 19,3 41,9 29,1 24,3 11 6 22 12 S 1016,8 20 60 0,0
23.07.2019 13:00:00 34,2 19,1 40,2 29,0 24,4 11 6 18 10 SSE 1017,6 20 60 0,0
23.07.2019 12:00:00 32,3 19,2 38,4 29,0 24,4 5 3 16 9 SSW 1018,1 20 60 0,0
23.07.2019 11:00:00 30,6 18,7 35,0 29,1 24,3 3 2 9 5 SE 1018,6 20 60 0,0
23.07.2019 10:00:00 27,7 19,2 32,3 29,2 24,3 2 1 9 5 NNW 1018,9 20 60 0,0
23.07.2019 09:00:00 25,5 18,9 24,9 29,4 24,3 4 2 15 8 N 1019,0 20 56 0,0
23.07.2019 08:00:00 23,5 19,2 22,7 29,6 24,3 10 5 16 8 NNE 1019,1 20 51 0,0
23.07.2019 07:00:00 21,6 19,5 20,0 29,8 24,3 4 2 8 4 NNE 1019,1 17 19 0,0
23.07.2019 06:00:00 21,5 19,1 20,4 29,9 24,3 4 2 9 5 ENE 1019,2 17 0 0,0
23.07.2019 05:00:00 22,0 19,7 20,5 30,1 24,2 3 2 5 3 N 1019,2 18 0 0,0
23.07.2019 04:00:00 22,9 19,9 20,9 30,3 24,2 0 0 4 2 N 1019,5 19 0 0,0
23.07.2019 03:00:00 23,7 20,2 21,9 30,4 24,2 0 0 3 2 N 1019,6 20 0 0,0
23.07.2019 02:00:00 25,4 20,6 24,6 30,5 24,2 3 2 9 5 SSW 1019,8 20 0 0,0
23.07.2019 01:00:00 26,0 20,6 25,1 30,6 24,2 4 2 14 7 S 1019,9 20 0 0,0
23.07.2019 00:00:00 27,0 20,6 26,3 30,6 24,2 7 4 13 7 SSW 1019,7 20 0 0,0
22.07.2019 23:00:00 28,4 19,9 27,6 30,5 24,2 8 4 14 7 SSW 1019,7 20 0 0,0
22.07.2019 22:00:00 30,1 19,8 29,1 30,4 24,2 6 3 22 12 S 1019,2 20 0 0,0
22.07.2019 21:00:00 32,9 20,1 32,6 30,2 24,2 13 7 24 13 S 1018,4 19 43 0,0
22.07.2019 20:00:00 34,6 16,9 36,4 29,9 24,2 9 5 17 9 N 1017,4 20 60 0,0
22.07.2019 19:00:00 36,1 15,3 40,2 29,6 24,2 10 6 23 12 N 1017,2 20 60 0,0
22.07.2019 18:00:00 37,4 15,2 43,9 29,2 24,2 11 6 19 11 N 1017,4 20 60 0,0
22.07.2019 17:00:00 37,7 13,0 44,6 28,8 24,2 11 6 22 12 N 1017,7 20 60 0,0
22.07.2019 16:00:00 36,8 15,9 44,0 28,5 24,2 13 7 21 11 NNE 1018,3 20 60 0,0
22.07.2019 15:00:00 35,9 16,6 42,3 28,2 24,2 16 8 27 15 NNE 1018,9 20 60 0,0
22.07.2019 14:00:00 35,0 15,8 40,9 28,1 24,2 18 10 30 16 NNE 1019,6 20 60 0,0
22.07.2019 13:00:00 33,4 16,3 38,6 28,0 24,2 16 9 28 15 NNE 1020,3 20 60 0,0
22.07.2019 12:00:00 31,4 17,3 35,3 28,0 24,1 15 8 24 13 NNE 1020,9 20 56 0,0
22.07.2019 11:00:00 29,7 17,2 33,8 28,1 24,1 16 9 24 13 NNE 1021,2 20 60 0,0
22.07.2019 10:00:00 27,7 17,2 29,9 28,2 24,1 12 7 26 14 NNE 1021,5 20 60 0,0
22.07.2019 09:00:00 25,9 17,3 26,0 28,4 24,1 13 7 28 15 NNE 1021,6 20 60 0,0
22.07.2019 08:00:00 23,4 18,1 21,9 28,6 24,1 14 7 19 11 NNE 1021,5 20 16 0,0
22.07.2019 07:00:00 21,7 18,1 20,4 28,8 24,1 11 6 19 11 NE 1021,3 20 0 0,0
22.07.2019 06:00:00 21,2 17,6 19,6 28,9 24,1 8 4 15 8 NNE 1021,4 20 0 0,0
22.07.2019 05:00:00 20,6 17,2 18,8 29,1 24,1 5 3 9 5 N 1021,4 20 0 0,0
22.07.2019 04:00:00 20,7 17,9 19,2 29,3 24,1 3 1 4 2 NNE 1021,5 20 0 0,0
22.07.2019 03:00:00 21,6 18,4 19,9 29,4 24,1 0 0 0 0 N 1021,2 20 0 0,0
22.07.2019 02:00:00 22,3 18,5 20,6 29,5 24,1 0 0 0 0 N 1021,2 20 0 0,0
22.07.2019 01:00:00 23,4 18,7 21,7 29,6 24,1 0 0 2 1 N 1021,0 20 0 0,0
22.07.2019 00:00:00 25,0 19,1 23,0 29,6 24,0 0 0 5 3 N 1020,6 20 0 0,0
21.07.2019 23:00:00 26,8 18,9 24,9 29,6 24,0 0 0 10 6 N 1020,2 20 0 0,0
21.07.2019 22:00:00 28,2 18,9 26,5 29,5 24,0 6 3 13 7 NNE 1019,2 19 0 0,0
21.07.2019 21:00:00 30,5 17,9 30,0 29,3 24,0 10 5 14 8 NNE 1018,4 19 0 0,0
21.07.2019 20:00:00 31,4 17,7 31,9 29,2 24,1 7 4 9 5 NNE 1017,9 20 22 0,0
21.07.2019 19:00:00 31,3 18,3 31,2 28,8 24,0 4 2 9 5 N 1018,0 15 4 0,0
21.07.2019 18:00:00 32,2 17,3 32,9 28,4 24,0 8 4 21 11 N 1018,0 20 14 0,0
21.07.2019 17:00:00 34,8 17,1 41,4 28,0 24,0 11 6 20 11 N 1017,8 20 60 0,0
21.07.2019 16:00:00 34,0 16,4 41,0 27,7 24,0 13 7 22 12 NNE 1018,7 20 60 0,0
21.07.2019 15:00:00 33,0 16,8 38,1 27,4 24,1 13 7 22 12 NNE 1019,2 20 48 0,0
21.07.2019 14:00:00 32,2 16,5 39,2 27,2 24,0 12 7 23 12 NNE 1019,7 20 60 0,0
21.07.2019 13:00:00 31,4 15,8 38,5 27,1 24,0 13 7 20 11 NNE 1020,1 20 60 0,0
21.07.2019 12:00:00 29,6 16,4 36,0 27,1 24,0 8 4 14 7 N 1020,7 20 60 0,0
21.07.2019 11:00:00 27,4 15,7 33,1 27,2 24,1 5 3 10 6 N 1021,0 20 60 0,0
21.07.2019 10:00:00 24,9 15,8 25,9 27,3 24,0 3 2 9 5 NNE 1021,0 20 45 0,0
21.07.2019 09:00:00 21,4 15,2 22,2 27,4 24,0 0 0 5 3 N 1021,2 20 10 0,0
21.07.2019 08:00:00 19,4 15,7 18,1 27,6 24,0 3 2 5 3 NNW 1021,0 20 0 0,0
21.07.2019 07:00:00 17,8 14,5 16,4 27,8 24,0 0 0 4 2 N 1020,9 14 0 0,0
21.07.2019 06:00:00 17,7 14,0 16,3 28,0 24,0 2 1 6 3 N 1020,8 19 0 0,0
21.07.2019 05:00:00 18,0 13,7 16,7 28,2 24,0 0 0 5 3 N 1020,3 20 0 0,0
21.07.2019 04:00:00 18,5 13,8 17,1 28,4 24,0 0 0 4 2 N 1020,4 20 0 0,0
21.07.2019 03:00:00 19,1 13,5 17,2 28,5 23,9 2 1 5 3 E 1020,4 20 0 0,0
21.07.2019 02:00:00 19,8 12,5 17,3 28,7 24,0 2 1 4 2 NNW 1020,4 20 0 0,0
21.07.2019 01:00:00 21,5 12,3 18,3 28,8 23,9 0 0 5 3 N 1020,2 20 0 0,0
21.07.2019 00:00:00 24,2 12,5 22,9 28,8 23,9 5 3 18 10 S 1019,7 20 0 0,0
20.07.2019 23:00:00 25,5 12,3 24,8 28,9 24,0 10 6 23 13 S 1018,9 20 0 0,0
20.07.2019 22:00:00 27,2 11,2 26,6 28,8 23,9 14 8 29 15 S 1018,2 20 0 0,0
20.07.2019 21:00:00 28,8 10,5 28,4 28,7 23,9 15 8 29 16 S 1017,1 20 48 0,0
20.07.2019 20:00:00 30,5 9,9 32,0 28,5 23,9 13 7 33 18 S 1016,4 20 60 0,0
20.07.2019 19:00:00 31,3 13,6 34,2 28,2 23,9 18 10 30 16 S 1016,2 20 56 0,0
20.07.2019 18:00:00 31,8 14,0 33,1 28,0 23,9 15 8 32 18 S 1016,2 20 36 0,0
20.07.2019 17:00:00 30,3 15,6 32,8 27,8 23,9 17 9 29 16 S 1016,5 20 20 0,0
20.07.2019 16:00:00 30,4 16,0 34,0 27,6 23,9 19 10 35 19 S 1016,9 20 51 0,0
20.07.2019 15:00:00 30,0 16,4 32,7 27,5 23,9 18 10 29 16 S 1017,1 9 45 0,0
20.07.2019 14:00:00 28,2 16,5 28,8 27,5 23,9 12 6 22 12 SSW 1017,6 20 7 0,0
20.07.2019 13:00:00 27,9 16,2 29,4 27,5 23,9 9 5 24 13 SW 1018,1 20 28 0,0
20.07.2019 12:00:00 25,8 15,2 27,2 27,5 23,8 9 5 18 10 SSW 1018,2 20 0 0,0
20.07.2019 11:00:00 25,5 14,9 28,2 27,6 23,9 11 6 25 14 SSW 1018,3 20 1 0,0
20.07.2019 10:00:00 25,1 15,4 27,6 27,8 23,8 12 7 25 14 S 1018,3 20 55 0,0
20.07.2019 09:00:00 22,8 14,9 25,0 28,0 23,8 9 5 16 9 S 1017,3 20 54 0,0
20.07.2019 08:00:00 20,1 14,0 18,0 28,2 23,8 4 2 9 5 SSE 1016,9 20 60 0,0
20.07.2019 07:00:00 16,7 13,6 14,3 28,5 23,8 0 0 4 2 N 1017,0 17 22 0,0
20.07.2019 06:00:00 17,2 13,1 14,6 28,7 23,8 0 0 6 4 N 1016,8 20 0 0,0
20.07.2019 05:00:00 18,3 13,2 15,2 28,9 23,8 3 1 5 3 S 1016,4 20 0 0,0
20.07.2019 04:00:00 19,3 13,5 15,8 29,1 23,8 4 2 8 4 S 1016,2 20 0 0,0
20.07.2019 03:00:00 19,5 12,5 16,4 29,3 23,8 2 1 6 3 S 1016,0 20 0 0,0
20.07.2019 02:00:00 21,1 12,5 18,9 29,4 23,8 4 2 8 4 SSW 1015,9 20 0 0,0
20.07.2019 01:00:00 22,3 12,0 18,8 29,5 23,8 2 1 10 5 SSW 1015,9 20 0 0,0
20.07.2019 00:00:00 23,9 11,6 22,6 29,6 23,7 5 3 22 12 SSW 1015,7 20 0 0,0
19.07.2019 23:00:00 25,9 11,3 25,2 29,5 23,8 13 7 24 13 S 1015,1 20 0 0,0
19.07.2019 22:00:00 27,5 12,7 26,6 29,4 23,8 11 6 24 13 S 1014,2 20 0 0,0
19.07.2019 21:00:00 29,5 12,9 28,9 29,2 23,7 13 7 29 16 S 1013,3 19 40 0,0
19.07.2019 20:00:00 31,9 12,7 33,6 28,9 23,8 16 9 29 15 S 1012,4 20 60 0,0
19.07.2019 19:00:00 33,5 8,9 37,9 28,4 23,7 9 5 16 9 S 1012,5 20 60 0,0
19.07.2019 18:00:00 33,5 9,5 39,6 28,1 23,8 6 4 15 8 S 1012,9 20 60 0,0
19.07.2019 17:00:00 33,5 9,5 39,6 27,7 23,8 2 1 14 8 N 1013,3 20 60 0,0
19.07.2019 16:00:00 32,6 9,4 39,1 27,4 23,7 2 1 13 7 N 1013,8 20 60 0,0
19.07.2019 15:00:00 32,1 10,2 38,4 27,1 23,7 5 3 18 10 N 1014,4 20 60 0,0
19.07.2019 14:00:00 30,3 12,2 36,2 26,9 23,7 13 7 24 13 NNE 1015,0 20 60 0,0
19.07.2019 13:00:00 28,8 13,1 33,9 26,9 23,7 16 9 31 17 NNE 1015,5 20 60 0,0
19.07.2019 12:00:00 27,3 13,6 31,8 26,9 23,6 20 11 37 20 NNE 1016,1 20 60 0,0
19.07.2019 11:00:00 26,0 13,1 30,7 27,0 23,6 23 12 38 21 NNE 1016,3 20 60 0,0
19.07.2019 10:00:00 24,7 13,3 27,8 27,1 23,7 21 11 39 21 NNE 1016,4 20 60 0,0
19.07.2019 09:00:00 23,3 12,0 26,4 27,3 23,6 22 12 41 22 NNE 1016,5 20 60 0,0
19.07.2019 08:00:00 22,3 12,3 21,5 27,5 23,6 14 8 22 12 NNE 1016,2 20 60 0,0
19.07.2019 07:00:00 21,0 10,5 19,8 27,7 23,6 9 5 26 14 N 1016,0 20 23 0,0
19.07.2019 06:00:00 20,7 11,3 19,6 27,9 23,6 16 9 24 13 NNE 1015,9 20 0 0,0
19.07.2019 05:00:00 21,5 10,9 20,7 28,1 23,6 14 7 34 18 NNE 1015,6 20 0 0,0
19.07.2019 04:00:00 21,8 10,9 20,9 28,2 23,6 14 8 29 16 N 1015,3 20 0 0,0
19.07.2019 03:00:00 23,1 9,8 22,1 28,4 23,6 18 10 29 16 N 1015,2 20 0 0,0
19.07.2019 02:00:00 23,6 9,9 22,5 28,5 23,6 13 7 24 13 N 1015,0 20 0 0,0
19.07.2019 01:00:00 23,8 9,8 22,5 28,7 23,6 10 5 23 13 NNE 1014,7 20 0 0,0
19.07.2019 00:00:00 25,1 10,2 23,8 28,7 23,6 16 9 34 18 NNE 1014,3 20 0 0,0
18.07.2019 23:00:00 25,3 10,7 23,7 28,8 23,6 14 8 22 12 NNE 1013,7 20 0 0,0
18.07.2019 22:00:00 25,9 12,0 24,7 28,7 23,6 10 5 17 9 NNE 1013,0 20 0 0,0
18.07.2019 21:00:00 27,2 11,6 26,4 28,5 23,5 8 4 20 11 N 1012,0 20 23 0,0
18.07.2019 20:00:00 28,6 11,2 28,5 28,3 23,6 10 5 23 13 N 1011,4 20 0 0,0
18.07.2019 19:00:00 30,6 10,5 32,8 28,0 23,6 15 8 32 17 NNE 1010,9 20 52 0,0
18.07.2019 18:00:00 31,5 10,2 36,0 27,7 23,5 14 8 32 17 NNE 1010,8 20 58 0,0
18.07.2019 17:00:00 32,0 9,5 37,7 27,4 23,6 14 7 28 15 NNE 1011,1 20 60 0,0
18.07.2019 16:00:00 32,1 10,2 37,9 27,1 23,6 14 8 29 16 NNE 1011,4 20 60 0,0
18.07.2019 15:00:00 31,4 9,6 36,4 26,9 23,5 13 7 27 15 NNE 1011,5 20 49 0,0
18.07.2019 14:00:00 31,0 10,4 36,5 26,7 23,6 15 8 26 14 NNE 1012,0 20 60 0,0
18.07.2019 13:00:00 30,1 11,6 35,2 26,7 23,5 16 8 26 14 NNE 1012,3 20 60 0,0
18.07.2019 12:00:00 28,9 11,9 34,3 26,6 23,5 15 8 24 13 NNE 1012,7 20 60 0,0
18.07.2019 11:00:00 27,1 11,2 30,9 26,7 23,5 16 8 30 16 NNE 1012,8 20 60 0,0
18.07.2019 10:00:00 24,6 11,5 27,6 26,9 23,5 13 7 22 12 NNE 1013,3 18 60 0,0
18.07.2019 09:00:00 22,5 12,7 21,0 27,0 23,5 6 4 15 8 NNE 1013,3 18 42 0,0
18.07.2019 08:00:00 20,4 12,6 21,1 27,2 23,5 4 2 14 7 NNW 1013,0 20 21 0,0
18.07.2019 07:00:00 20,6 12,0 19,6 27,4 23,5 10 5 20 11 N 1012,5 20 24 0,0
18.07.2019 06:00:00 20,6 12,6 19,7 27,6 23,5 10 6 21 11 N 1012,2 20 0 0,0
18.07.2019 05:00:00 21,3 11,9 20,3 27,7 23,4 10 5 23 12 N 1011,9 20 0 0,0
18.07.2019 04:00:00 22,0 11,4 20,6 27,9 23,5 14 7 24 13 N 1012,0 20 0 0,0
18.07.2019 03:00:00 22,6 11,6 21,4 28,1 23,5 10 5 18 10 N 1012,0 20 0 0,0
18.07.2019 02:00:00 23,1 11,2 22,1 28,1 23,4 10 5 20 11 N 1011,8 20 0 0,0
18.07.2019 01:00:00 23,1 12,7 22,4 28,3 23,5 10 5 17 9 N 1011,8 20 0 0,0
18.07.2019 00:00:00 24,6 11,2 23,5 28,3 23,5 10 5 17 9 N 1011,5 20 0 0,0
17.07.2019 23:00:00 26,1 9,9 25,3 28,2 23,4 11 6 16 9 N 1011,3 20 0 0,0
17.07.2019 22:00:00 26,9 11,0 25,1 28,1 23,5 8 5 12 7 N 1010,7 20 0 0,0
17.07.2019 21:00:00 28,3 11,4 27,2 27,9 23,4 4 2 14 7 N 1010,2 17 5 0,0
17.07.2019 20:00:00 29,9 9,4 29,8 27,7 23,5 10 6 24 13 NNE 1009,9 20 37 0,0
17.07.2019 19:00:00 31,6 9,2 35,9 27,4 23,5 13 7 27 15 NNE 1009,8 20 60 0,0
17.07.2019 18:00:00 32,1 10,2 36,8 26,9 23,4 14 8 27 15 N 1010,1 20 60 0,0
17.07.2019 17:00:00 32,3 9,2 38,7 26,5 23,4 17 9 29 16 NNE 1010,6 20 60 0,0
17.07.2019 16:00:00 32,1 9,0 37,4 26,2 23,4 19 10 29 15 NNE 1011,0 20 60 0,0
17.07.2019 15:00:00 31,8 9,9 38,8 26,0 23,5 18 10 28 15 NNE 1011,5 20 60 0,0

tt = Température de l'air
td = dewpoint
tt 5cm = Température de l'air 5cm
tt -20cm = Température de l'air -20cm
tt -100cm = Température de l'air -100cm
ff = Vitesse du vent
fx = gusts
dd = Direction du vent
ppp = reduced air pressure
vv = visibility
sd = Ensoleillement
rr = Quantités de précipitations

stations d'obs. à proximité